Weather History for Hattiesburg, MS

Change the Weather History Date:

Tuesday, June 25, 2013

  Actual Average Record
Temperature  
Mean Temperature 81 °F 80 °F  
Max Temperature 93 °F 91 °F 100 °F (2009)
Min Temperature 69 °F 70 °F 56 °F (1974)
Degree Days  
Heating Degree Days 0 0  
Month to date heating degree days 0 0  
Since 1 June heating degree days 0 0  
Since 1 July heating degree days 1864 1985  
Cooling Degree Days 16 15  
Month to date cooling degree days 383 343  
Year to date cooling degree days 725 758  
Since 1 June cooling degree days 383 343  
Growing Degree Days 31 (Base 50)    
Moisture  
Dew Point 71 °F    
Average Humidity 73    
Maximum Humidity 100    
Minimum Humidity 46    
Precipitation  
Precipitation 0.00 in 0.24 in 1.38 in (1954)
Month to date precipitation 4.50 4.37  
Year to date precipitation 41.71 30.91  
Sea Level Pressure  
Sea Level Pressure 30.09 in    
Wind  
Wind Speed 3 mph (South)    
Max Wind Speed 9 mph    
Max Gust Speed -    
Visibility 10 miles    
Events Thunderstorm    
T = Trace of Precipitation, MM = Missing Value Source: NWS Daily Summary

Daily Weather History Graph

Daily Weather History Graph

Search for Another Location

Airport:

Trip Planner

Search our weather history database for the weather conditions in past years. The results will help you decide how hot, cold, wet, or windy it might be!

Date:

Astronomy

Jun. 25, 2013 Rise Set
Actual Time 5:54 AM CDT 8:05 PM CDT
Civil Twilight 5:26 AM CDT 8:32 PM CDT
Nautical Twilight 4:52 AM CDT 9:07 PM CDT
Astronomical Twilight 4:15 AM CDT 9:43 PM CDT
Moon 10:03 PM CDT (6/25) 8:24 AM CDT (6/25)
Length of Visible Light 15h 06m
Length of Day
14h 10m
Waning Gibbous, 92% of the Moon is Illuminated
Jun 25
Waning Gibbous
Jun 29
Last Quarter
Jul 8
New
Jul 15
First Quarter
Jul 22
Full

Hourly Weather History & Observations

Time (CDT) Temp. Heat Index Dew Point Humidity Pressure Visibility Wind Dir Wind Speed Gust Speed Precip Events Conditions
12:53 AM 73.0 °F - 71.1 °F 93% 30.11 in 10.0 mi Calm Calm - N/A   Clear
1:53 AM 72.0 °F - 71.1 °F 97% 30.10 in 10.0 mi Calm Calm - N/A   Clear
2:53 AM 71.1 °F - 70.0 °F 96% 30.10 in 10.0 mi Calm Calm - N/A   Clear
3:53 AM 70.0 °F - 69.1 °F 97% 30.10 in 10.0 mi Calm Calm - N/A   Clear
4:24 AM 69.8 °F - 69.8 °F 100% 30.10 in 10.0 mi Calm Calm - N/A   Scattered Clouds
4:37 AM 69.8 °F - 68.0 °F 94% 30.10 in 10.0 mi Calm Calm - N/A   Mostly Cloudy
4:53 AM 70.0 °F - 69.1 °F 97% 30.10 in 10.0 mi Calm Calm - N/A   Scattered Clouds
5:53 AM 69.1 °F - 68.0 °F 96% 30.12 in 10.0 mi Calm Calm - N/A   Scattered Clouds
6:03 AM 69.8 °F - 68.0 °F 94% 30.13 in 10.0 mi Calm Calm - N/A   Mostly Cloudy
6:53 AM 71.1 °F - 70.0 °F 96% 30.13 in 10.0 mi Calm Calm - N/A   Overcast
7:45 AM 73.4 °F - 71.6 °F 94% 30.14 in 10.0 mi Calm Calm - N/A   Scattered Clouds
7:53 AM 75.0 °F - 72.0 °F 90% 30.14 in 10.0 mi Calm Calm - N/A   Partly Cloudy
8:53 AM 80.1 °F 84.5 °F 73.9 °F 81% 30.14 in 10.0 mi North - - N/A   Clear
9:53 AM 84.0 °F 91.2 °F 73.9 °F 72% 30.13 in 10.0 mi SSE 6.9 mph - N/A   Mostly Cloudy
10:02 AM 84.2 °F 90.9 °F 73.4 °F 70% 30.14 in 10.0 mi SE 4.6 mph - N/A   Mostly Cloudy
10:27 AM 84.2 °F 90.9 °F 73.4 °F 70% 30.13 in 10.0 mi Calm Calm - N/A   Scattered Clouds
10:53 AM 86.0 °F 92.2 °F 72.0 °F 63% 30.12 in 10.0 mi Calm Calm - N/A   Clear
11:53 AM 88.0 °F 93.8 °F 71.1 °F 57% 30.11 in 10.0 mi Variable 3.5 mph - N/A   Mostly Cloudy
12:53 PM 90.0 °F 95.4 °F 70.0 °F 52% 30.09 in 10.0 mi SSE 8.1 mph - N/A   Partly Cloudy
1:53 PM 90.0 °F 95.4 °F 70.0 °F 52% 30.08 in 10.0 mi Variable 4.6 mph - N/A   Partly Cloudy
2:53 PM 91.9 °F 95.9 °F 68.0 °F 45% 30.06 in 10.0 mi SSW 6.9 mph - N/A   Partly Cloudy
3:53 PM 91.9 °F 96.9 °F 69.1 °F 47% 30.05 in 10.0 mi Calm Calm - N/A   Scattered Clouds
4:53 PM 93.0 °F 99.0 °F 70.0 °F 47% 30.02 in 10.0 mi Variable 6.9 mph - N/A   Scattered Clouds
5:35 PM 87.8 °F 93.8 °F 71.6 °F 58% 30.03 in 10.0 mi SSE 9.2 mph - N/A Thunderstorm Partly Cloudy
5:53 PM 87.1 °F 94.5 °F 73.0 °F 63% 30.01 in 10.0 mi SSE 5.8 mph - N/A   Scattered Clouds
6:53 PM 84.0 °F 91.2 °F 73.9 °F 72% 30.01 in 10.0 mi SE 4.6 mph - N/A   Scattered Clouds
7:53 PM 82.9 °F 90.2 °F 75.0 °F 77% 30.01 in 10.0 mi South 3.5 mph - N/A   Mostly Cloudy
8:53 PM 82.9 °F 88.8 °F 73.0 °F 72% 30.03 in 10.0 mi SW 6.9 mph - N/A   Mostly Cloudy
9:53 PM 81.0 °F 84.9 °F 71.1 °F 72% 30.04 in 10.0 mi South 6.9 mph - N/A   Mostly Cloudy
10:53 PM 79.0 °F - 71.1 °F 77% 30.05 in 10.0 mi South 3.5 mph - N/A   Clear
11:53 PM 78.1 °F - 71.1 °F 79% 30.03 in 10.0 mi SSW 4.6 mph - N/A   Clear